Location: El Carrer d�Abaix
(41.5797°N, 2.1791°E)
Time: 04:09:45
(UTC+00:00)

Cosmos 2082 Rocket - Pass Details

Date: 06 June 2020
Orbit: 832 x 855 km, 71.0° (Epoch: 04 July)

Event Time Altitude Azimuth Distance (km) Brightness Sun altitude
Rises 20:24:12 0° 327° (NNW) 3,430 7.2 -9.9°
Reaches altitude 10° 20:26:52 10° 318° (NW) 2,488 6.3 -10.3°
Maximum altitude 20:31:55 34° 256° (WSW) 1,382 3.7 -11.0°
Drops below altitude 10° 20:36:55 10° 193° (SSW) 2,461 4.3 -11.7°
Enters shadow 20:39:07 - 185° (S) 3,231 4.9 -11.9°
